Rocky Mount, NC

7:23 PM EDT on September 25, 2016 (GMT -0400)
Rocky Mount-Wilson Regional

Weather History for KRWI - May, 2013

Change the Weather History Date:

Friday, May 24, 2013

  Actual Average Record
Temperature  
Mean Temperature 64 °F -  
Max Temperature 73 °F 82 °F 94 °F (1957)
Min Temperature 55 °F 59 °F 43 °F (1956)
Growing Degree Days 14 (Base 50)    
Moisture  
Dew Point 57 °F    
Average Humidity 77    
Maximum Humidity 100    
Minimum Humidity 38    
Precipitation  
Precipitation 0.00 in - - ()
Sea Level Pressure  
Sea Level Pressure 29.90 in    
Wind  
Wind Speed 4 mph (WNW)    
Max Wind Speed 18 mph    
Max Gust Speed 28 mph    
Visibility 7 miles    
Events      
Averages and records for this station are not official NWS values.
T = Trace of Precipitation, MM = Missing Value Source: NWS Daily Summary

Daily Weather History Graph

Daily Weather History Graph

Search for Another Location

Airport or City:

Trip Planner

Search our weather history database for the weather conditions in past years. The results will help you decide how hot, cold, wet, or windy it might be!

Date:

Astronomy

May. 24, 2013 Rise Set
Actual Time 6:00 AM EDT 8:17 PM EDT
Civil Twilight 5:30 AM EDT 8:46 PM EDT
Nautical Twilight 4:55 AM EDT 9:22 PM EDT
Astronomical Twilight 4:16 AM EDT 10:01 PM EDT
Moon 7:58 PM EDT (5/24) 5:28 AM EDT (5/24)
Length of Visible Light 15h 15m
Length of Day
14h 17m
Full, 100% of the Moon is Illuminated
May 24
Full
May 25
Full
May 31
Last Quarter
Jun 8
New
Jun 16
First Quarter

Hourly Weather History & Observations

Time (EDT) Temp. Dew Point Humidity Pressure Visibility Wind Dir Wind Speed Gust Speed Precip Events Conditions
12:04 AM 66.2 °F 64.4 °F 94% 29.85 in 1.8 mi Calm Calm - N/A   Clear
12:13 AM 66.2 °F 64.4 °F 94% 29.85 in 3.0 mi South 3.5 mph - N/A   Clear
12:34 AM 64.4 °F 64.4 °F 100% 29.85 in 1.5 mi Calm Calm - N/A   Partly Cloudy
12:45 AM 66.2 °F 64.4 °F 94% 29.85 in 3.0 mi Calm Calm - N/A   Partly Cloudy
12:53 AM 66.0 °F 64.0 °F 93% 29.84 in 6.0 mi Calm Calm - N/A   Mostly Cloudy
1:06 AM 66.2 °F 64.4 °F 94% 29.84 in 1.8 mi Calm Calm - N/A   Mostly Cloudy
1:16 AM 66.2 °F 64.4 °F 94% 29.84 in 2.0 mi Calm Calm - N/A   Mostly Cloudy
1:23 AM 66.2 °F 64.4 °F 94% 29.84 in 2.5 mi South 3.5 mph - N/A   Mostly Cloudy
1:28 AM 66.2 °F 64.4 °F 94% 29.83 in 5.0 mi South 4.6 mph - N/A   Scattered Clouds
1:41 AM 66.2 °F 64.4 °F 94% 29.83 in 6.0 mi South 4.6 mph - N/A   Mostly Cloudy
1:53 AM 66.9 °F 64.9 °F 93% 29.82 in 6.0 mi South 4.6 mph - N/A   Mostly Cloudy
2:20 AM 66.2 °F 66.2 °F 100% 29.83 in 8.0 mi West 4.6 mph - N/A   Mostly Cloudy
2:42 AM 66.2 °F 64.4 °F 94% 29.81 in 8.0 mi Calm Calm - N/A   Scattered Clouds
2:53 AM 66.9 °F 64.9 °F 93% 29.80 in 7.0 mi Calm Calm - N/A   Partly Cloudy
3:06 AM 66.2 °F 64.4 °F 94% 29.80 in 1.5 mi Calm Calm - N/A   Partly Cloudy
3:15 AM 64.4 °F 64.4 °F 100% 29.81 in 0.8 mi West 3.5 mph - N/A   Partly Cloudy
3:20 AM 64.4 °F 64.4 °F 100% 29.80 in 2.0 mi Calm Calm - N/A   Partly Cloudy
3:28 AM 64.4 °F 64.4 °F 100% 29.80 in 5.0 mi Calm Calm - N/A   Scattered Clouds
3:53 AM 64.9 °F 64.0 °F 97% 29.81 in 3.0 mi WSW 3.5 mph - N/A   Mostly Cloudy
4:53 AM 66.0 °F 63.0 °F 90% 29.81 in 10.0 mi WNW 3.5 mph - N/A   Overcast
5:53 AM 64.9 °F 62.1 °F 90% 29.82 in 10.0 mi West 3.5 mph - N/A   Overcast
6:53 AM 64.9 °F 62.1 °F 90% 29.84 in 10.0 mi WNW 5.8 mph - N/A   Overcast
7:53 AM 66.0 °F 62.1 °F 87% 29.84 in 10.0 mi NW 5.8 mph - N/A   Scattered Clouds
8:53 AM 69.1 °F 62.1 °F 78% 29.86 in 10.0 mi NW 12.7 mph 17.3 mph N/A   Mostly Cloudy
9:53 AM 69.1 °F 57.9 °F 68% 29.88 in 10.0 mi NW 10.4 mph - N/A   Overcast
10:53 AM 68.0 °F 57.9 °F 70% 29.91 in 10.0 mi NW 10.4 mph - N/A   Overcast
11:53 AM 72.0 °F 57.0 °F 59% 29.93 in 10.0 mi WNW 16.1 mph 24.2 mph N/A   Overcast
12:53 PM 71.1 °F 55.0 °F 57% 29.95 in 10.0 mi NW 15.0 mph 20.7 mph N/A   Mostly Cloudy
1:53 PM 71.1 °F 53.1 °F 53% 29.96 in 10.0 mi NW 17.3 mph 27.6 mph N/A   Overcast
2:53 PM 72.0 °F 51.1 °F 48% 29.97 in 10.0 mi WNW 18.4 mph 26.5 mph N/A   Mostly Cloudy
3:53 PM 70.0 °F 46.9 °F 44% 29.98 in 10.0 mi NW 15.0 mph 25.3 mph N/A   Scattered Clouds
4:53 PM 68.0 °F 45.0 °F 43% 29.99 in 10.0 mi NW 13.8 mph 25.3 mph N/A   Mostly Cloudy
5:53 PM 69.1 °F 42.1 °F 38% 30.02 in 10.0 mi NW 15.0 mph 25.3 mph N/A   Clear
6:53 PM 66.9 °F 42.1 °F 40% 30.04 in 10.0 mi WNW 11.5 mph - N/A   Partly Cloudy
7:53 PM 64.0 °F 39.0 °F 40% 30.09 in 10.0 mi WNW 11.5 mph - N/A   Clear
8:53 PM 60.1 °F 39.0 °F 46% 30.11 in 10.0 mi NW 9.2 mph - N/A   Clear
9:53 PM 57.9 °F 37.9 °F 47% 30.14 in 10.0 mi NW 5.8 mph - N/A   Clear
10:53 PM 57.0 °F 37.0 °F 47% 30.17 in 10.0 mi NNW 6.9 mph - N/A   Clear
11:53 PM 55.0 °F 37.0 °F 51% 30.17 in 10.0 mi NNW 6.9 mph - N/A   Clear